Regional Weather Roundup
Issued by NWS

Home | Current Version | Previous Version | Text Only | Print | Product List | Glossary Off
Versions: 1 2 3 4 5 6 7 8 9 10 11 12 13 14 15 16 17 18 19 20 21 22 23 24 25 26 27 28 29 30 31 32 33 34 35 36 37 38 39 40 41 42 43 44 45 46 47 48 49 50

904
ASUS43 KOAX 250602
RWRNE

WEATHER ROUNDUP FOR NEBRASKA
NATIONAL WEATHER SERVICE OMAHA NE
100 AM CDT THU MAY 25 2017

NOTES: SATELLITE DATA IS BEING USED TO AUGMENT CLOUD COVER ABOVE
       12000 FEET.
       "FAIR" INDICATES FEW OR NO CLOUDS BELOW 12,000 FEET WITH NO
       SIGNIFICANT WEATHER AND/OR OBSTRUCTIONS TO VISIBILITY.

  * THESE STATIONS DO NOT REPORT WEATHER SUCH AS RAIN...SNOW OR FOG.

NEZ001>004-019>022-054>056-250700-
NEBRASKA PANHANDLE

CITY           SKY/WX    TMP DP  RH WIND       PRES   REMARKS
SCOTTSBLUFF    CLEAR     58  45  62 NE6       29.44S
6HR MIN TEMP:  56; 6HR MAX TEMP:  80;

ALLIANCE       CLEAR     56  47  71 S12       29.44S
6HR MIN TEMP:  55; 6HR MAX TEMP:  75;

CHADRON        CLEAR     60  47  61 W9        29.39R
6HR MIN TEMP:  60; 6HR MAX TEMP:  79;

SIDNEY         CLOUDY    61  46  57 SW12      29.52F
6HR MIN TEMP:  52; 6HR MAX TEMP:  78;

$$

NEZ057>060-069>072-079>082-250700-
SOUTHWEST NEBRASKA

CITY           SKY/WX    TMP DP  RH WIND       PRES   REMARKS
NORTH PLATTE   CLEAR     56  43  61 SE15G23   29.54F
6HR MIN TEMP:  56; 6HR MAX TEMP:  70;

IMPERIAL       CLEAR     57  44  62 S16       29.52F
6HR MIN TEMP:  56; 6HR MAX TEMP:  73;

LEXINGTON      CLEAR     55  45  68 SE15      29.59S
MCCOOK         CLEAR     55  45  68 SE12      29.57F
6HR MIN TEMP:  55; 6HR MAX TEMP:  73;

$$

NEZ005>010-023>029-035>040-094-250700-
NORTH CENTRAL NEBRASKA

CITY           SKY/WX    TMP DP  RH WIND       PRES   REMARKS
VALENTINE      PTCLDY    60  39  45 S12       29.46F
6HR MIN TEMP:  60; 6HR MAX TEMP:  73;

BROKEN BOW     CLOUDY    54  44  69 S16G24    29.57F
6HR MIN TEMP:  54; 6HR MAX TEMP:  66;

ORD            CLEAR     53  43  68 SE9       29.58F
6HR MIN TEMP:  53; 6HR MAX TEMP:  66;

$$

NEZ041-046>049-061>064-073>077-083>087-250700-
SOUTH CENTRAL NEBRASKA

CITY           SKY/WX    TMP DP  RH WIND       PRES   REMARKS
GRAND ISLAND   CLEAR     54  46  74 S13       29.63F
6HR MIN TEMP:  54; 6HR MAX TEMP:  66;

HASTINGS       CLEAR     54  44  69 S12       29.64F
6HR MIN TEMP:  54; 6HR MAX TEMP:  65;

KEARNEY *      CLEAR     54  43  66 S15       29.62F
$$

NEZ011>018-030>034-042>045-250700-
NORTHEAST NEBRASKA

CITY           SKY/WX    TMP DP  RH WIND       PRES   REMARKS
NORFOLK        CLEAR     53  42  66 SE12      29.63R
6HR MIN TEMP:  51; 6HR MAX TEMP:  65;

ALBION         CLEAR     51  43  73 SE9       29.62S
BLAIR          CLEAR     54  45  72 SE7       29.67S
TEKAMAH        CLEAR     50  32  50 S7        29.67R
6HR MIN TEMP:  50; 6HR MAX TEMP:  66;

$$

NEZ050>053-065>068-078-088>093-250700-
SOUTHEAST NEBRASKA

CITY           SKY/WX    TMP DP  RH WIND       PRES   REMARKS
LINCOLN        CLEAR     51  44  77 SE6       29.67F
6HR MIN TEMP:  50; 6HR MAX TEMP:  67;

OMAHA EPPLEY   CLEAR     54  44  69 S3        29.67S
6HR MIN TEMP:  53; 6HR MAX TEMP:  68;

FALLS CITY     CLEAR     51  47  86 SE5       29.68F
6HR MIN TEMP:  49; 6HR MAX TEMP:  66;

$$

NEZ044-045-051>053-067-250700-
OMAHA AREA

CITY           SKY/WX    TMP DP  RH WIND       PRES   REMARKS
OMAHA EPPLEY   CLEAR     54  44  69 S3        29.67S
6HR MIN TEMP:  53; 6HR MAX TEMP:  68;

BLAIR          CLEAR     54  45  72 SE7       29.67S
OFFUTT AFB     CLEAR     47  46  94 CALM      29.66F
WAHOO          FAIR      50  45  84 SE6       29.66S
$$




USA.gov is the U.S. government's official web portal to all federal, state and local government web resources and services.